Date String (YYYY-MM-DD hh:mm:ss) UTC,Instrument flags,Ambient pressure (hPa),Sample flow (lpm),Bypass flow (lpm),Sample temperature (°C),Ambient temperature (°C),ASC tube jacket temperature (°C),LED temperature (°C),Box temperature (°C),Sample RH (%),Span deviation,Mass concentration (μg/m³),Mass concentration (μg/m³),Mass concentration (μg/m³)
DateTimeUTC,F1_M11,P_M11,Q1_M11,Q2_M11,T1_M11,T2_M11,T3_M11,T4_M11,T5_M11,U1_M11,ZSPAN_M11,X0_M11,X2_M11,X1_M11
2022-05-07 01:00:00,,0820.3,4.98,0.00,29.2,26.6,00.0,38.1,30.9,12.7,0000.0,0011.75,0004.13,0002.38
2022-05-07 01:01:00,,0820.3,5.02,0.00,29.2,27.1,00.0,38.1,31.0,12.7,0000.0,0011.97,0004.15,0002.37
2022-05-07 01:02:00,,0820.3,4.99,0.00,29.2,27.5,00.0,38.1,31.1,12.9,0000.0,0012.04,0004.15,0002.36
2022-05-07 01:03:00,,0820.3,5.00,0.00,29.3,27.8,00.0,38.1,31.2,12.6,0000.0,0012.10,0004.12,0002.35
2022-05-07 01:04:00,,0820.3,5.00,0.00,29.3,28.1,00.0,38.1,31.2,12.5,0000.0,0012.81,0004.11,0002.35
2022-05-07 01:05:00,,0820.3,4.99,0.00,29.4,28.3,00.0,38.1,31.3,12.5,0000.0,0012.84,0004.13,0002.34
2022-05-07 01:06:00,,0820.3,5.00,0.00,29.4,28.4,00.0,38.2,31.4,12.6,0000.0,0012.63,0004.19,0002.35
2022-05-07 01:07:00,,0820.4,5.00,0.00,29.5,28.5,00.0,38.2,31.4,12.5,0000.0,0012.85,0004.25,0002.35
2022-05-07 01:08:00,,0820.4,4.99,0.00,29.5,28.6,00.0,38.2,31.5,12.5,0000.0,0012.85,0004.26,0002.36
2022-05-07 01:09:00,,0820.4,5.02,0.00,29.6,28.7,00.0,38.2,31.5,12.5,0000.0,0012.23,0004.31,0002.37
2022-05-07 01:10:00,,0820.4,4.99,0.00,29.5,27.3,00.0,38.3,31.2,12.5,0000.0,0012.36,0004.28,0002.38
2022-05-07 01:11:00,,0820.3,5.01,0.00,29.4,25.2,00.0,38.3,30.7,12.3,0000.0,0012.23,0004.26,0002.40
2022-05-07 01:12:00,,0820.4,4.99,0.00,29.3,25.1,00.0,38.2,30.7,12.7,0000.0,0012.49,0004.27,0002.42
2022-05-07 01:13:00,,0820.5,5.00,0.00,29.2,25.5,00.0,38.2,30.7,12.9,0000.0,0012.63,0004.28,0002.43
2022-05-07 01:14:00,,0820.4,5.00,0.00,29.1,26.1,00.0,38.1,30.8,12.6,0000.0,0013.00,0004.31,0002.45
2022-05-07 01:15:00,,0820.5,4.99,0.00,29.2,26.6,00.0,38.1,30.9,12.9,0000.0,0012.65,0004.31,0002.45
2022-05-07 01:16:00,,0820.5,5.00,0.00,29.2,27.0,00.0,38.1,31.0,13.5,0000.0,0012.00,0004.28,0002.46
2022-05-07 01:17:00,,0820.5,5.01,0.00,29.2,27.3,00.0,38.1,31.1,13.1,0000.0,0011.95,0004.19,0002.46
2022-05-07 01:18:00,,0820.5,4.99,0.00,29.3,27.7,00.0,38.1,31.2,12.9,0000.0,0012.20,0004.16,0002.48
2022-05-07 01:19:00,,0820.6,4.99,0.00,29.3,27.9,00.0,38.1,31.2,12.8,0000.0,0012.27,0004.20,0002.49
2022-05-07 01:20:00,,0820.6,5.00,0.00,29.3,28.1,00.0,38.1,31.3,12.6,0000.0,0013.46,0004.18,0002.49
2022-05-07 01:21:00,,0820.6,4.99,0.00,29.4,28.3,00.0,38.2,31.3,12.7,0000.0,0014.06,0004.28,0002.50
2022-05-07 01:22:00,,0820.6,5.00,0.00,29.4,28.4,00.0,38.2,31.4,12.9,0000.0,0014.77,0004.28,0002.49
2022-05-07 01:23:00,,0820.6,4.99,0.00,29.5,28.6,00.0,38.2,31.4,12.5,0000.0,0014.81,0004.20,0002.45
2022-05-07 01:24:00,,0820.7,5.01,0.00,29.5,28.7,00.0,38.2,31.5,12.7,0000.0,0015.07,0004.21,0002.48
2022-05-07 01:28:00,,,,,,,,,,,,0000.00,0000.00,0000.00
2022-05-07 01:28:36,,1013.0,5.03,1.42,03.1,03.1,00.0,04.9,02.4,35.0,0000.0,0000.00,0000.00,0000.00
2022-05-07 01:29:00,,0863.9,5.01,0.00,23.0,20.8,00.0,25.7,24.8,17.6,0000.0,0012.52,0002.57,0000.57
2022-05-07 01:30:00,,0820.9,4.99,0.00,29.5,25.6,00.0,34.9,30.8,12.6,0000.0,0019.44,0004.51,0001.33
2022-05-07 01:31:00,,0820.8,5.01,0.00,29.4,25.8,00.0,36.1,30.8,12.0,0000.0,0016.71,0004.21,0001.44
2022-05-07 01:32:00,,0820.8,5.00,0.00,29.3,26.2,00.0,36.8,30.9,12.3,0000.0,0014.19,0004.26,0001.81
2022-05-07 01:33:00,,0820.7,4.99,0.00,29.3,26.7,00.0,37.2,31.0,12.8,0000.0,0013.04,0004.41,0002.05
2022-05-07 01:34:00,,0820.7,5.00,0.00,29.3,27.1,00.0,37.5,31.1,12.7,0000.0,0011.98,0004.29,0002.14
2022-05-07 01:35:00,,0820.7,5.00,0.00,29.3,27.4,00.0,37.6,31.1,12.5,0000.0,0011.57,0004.27,0002.21
2022-05-07 01:36:00,,0820.7,5.01,0.00,29.3,27.6,00.0,37.8,31.2,12.3,0000.0,0011.64,0004.29,0002.28
2022-05-07 01:37:00,,0820.7,5.00,0.00,29.4,27.9,00.0,37.9,31.2,11.9,0000.0,0011.49,0004.30,0002.33
2022-05-07 01:38:00,,0820.7,5.00,0.00,29.4,28.1,00.0,37.9,31.3,12.1,0000.0,0011.70,0004.37,0002.37
2022-05-07 01:39:00,,0820.7,4.99,0.00,29.4,28.3,00.0,38.0,31.3,12.2,0000.0,0011.74,0004.41,0002.39
2022-05-07 01:40:00,,0820.9,5.03,0.00,29.5,28.4,00.0,38.0,31.4,12.6,0000.0,0011.57,0004.42,0002.41
2022-05-07 01:41:00,,0820.8,4.99,0.00,29.5,28.6,00.0,38.1,31.4,12.7,0000.0,0011.09,0004.44,0002.49
2022-05-07 01:42:00,,0820.9,4.99,0.00,29.6,28.1,00.0,38.1,31.3,12.8,0000.0,0011.13,0004.42,0002.57
2022-05-07 01:43:00,,0820.8,5.01,0.00,29.4,25.8,00.0,38.1,30.8,13.0,0000.0,0011.30,0004.43,0002.60
2022-05-07 01:44:00,,0820.9,5.01,0.00,29.3,24.7,00.0,38.1,30.5,13.4,0000.0,0011.37,0004.41,0002.62
2022-05-07 01:45:00,,0820.9,5.00,0.00,29.2,25.2,00.0,38.1,30.6,13.5,0000.0,0011.60,0004.46,0002.64
2022-05-07 01:46:00,,0820.8,4.99,0.00,29.1,25.7,00.0,38.1,30.7,13.7,0000.0,0011.96,0004.50,0002.65
2022-05-07 01:47:00,,0820.8,5.00,0.00,29.1,26.2,00.0,38.0,30.8,13.4,0000.0,0011.79,0004.45,0002.64
2022-05-07 01:48:00,,0820.9,5.01,0.00,29.1,26.7,00.0,38.0,30.9,13.0,0000.0,0012.97,0004.48,0002.64
2022-05-07 01:49:00,,0820.8,5.00,0.00,29.2,27.2,00.0,38.0,31.0,12.9,0000.0,0013.55,0004.40,0002.65
2022-05-07 01:50:00,,0820.9,5.00,0.00,29.2,27.5,00.0,38.0,31.0,13.0,0000.0,0013.30,0004.37,0002.68
2022-05-07 01:51:00,,0820.9,5.01,0.00,29.2,27.8,00.0,38.0,31.1,12.9,0000.0,0013.29,0004.38,0002.69
2022-05-07 01:52:00,,0820.9,4.99,0.00,29.3,28.0,00.0,38.0,31.2,12.9,0000.0,0013.78,0004.44,0002.70
2022-05-07 01:53:00,,0821.0,5.00,0.00,29.3,28.2,00.0,38.1,31.2,12.9,0000.0,0013.71,0004.53,0002.72
2022-05-07 01:54:00,,0821.0,5.01,0.00,29.4,28.4,00.0,38.1,31.3,12.8,0000.0,0013.61,0004.50,0002.72
2022-05-07 01:55:00,,0821.0,5.00,0.00,29.4,28.5,00.0,38.1,31.3,12.8,0000.0,0013.40,0004.44,0002.70
2022-05-07 01:56:00,,0821.0,4.99,0.00,29.5,28.6,00.0,38.2,31.4,12.6,0000.0,0013.58,0004.42,0002.70
2022-05-07 01:57:00,,0821.0,5.01,0.00,29.5,28.8,00.0,38.2,31.4,12.9,0000.0,0013.84,0004.42,0002.72
2022-05-07 01:58:00,,0821.0,5.00,0.00,29.6,28.8,00.0,38.2,31.5,12.9,0000.0,0014.38,0004.45,0002.73
2022-05-07 01:59:00,,0821.0,4.99,0.00,29.6,28.9,00.0,38.3,31.5,12.8,0000.0,0014.27,0004.44,0002.75
